DW4657 Weather Reports


Display with metric or nautical units.
time (UTC)temp
F
wind
direction
speed
MPH
gust
MPH
rain 1hr
in
rain 24hr
in
rain mn
in
humidity
%
barometer
mb
20210418090525 41 0 0.0 2.0 0.00 0.07 0.00 84 1007.8
20210418090107 41 302 0.0 0.0 0.00 0.07 0.00 84 1007.8
20210418085904 41 0 0.0 0.0 0.00 0.10 0.00 84 1007.8
20210418085228 41 0 0.0 0.0 0.00 0.10 0.00 84 1007.8
20210418084545 41 0 0.0 0.0 0.00 0.10 0.00 84 1007.8
20210418084045 41 0 0.0 0.0 0.00 0.10 0.00 84 1007.8
20210418083546 41 0 0.0 0.0 0.00 0.10 0.00 85 1007.8
20210418083059 41 0 0.0 0.0 0.00 0.10 0.00 85 1007.8
20210418082755 41 0 0.0 0.0 0.00 0.10 0.00 85 1007.9
20210418082059 41 0 0.0 0.0 0.00 0.10 0.00 85 1007.9
20210418081552 41 0 0.0 0.0 0.00 0.10 0.00 85 1007.8
20210418081051 41 0 0.0 0.0 0.00 0.10 0.00 85 1007.9
20210418080527 41 0 0.0 0.0 0.00 0.10 0.00 86 1007.8
20210418080156 41 0 0.0 0.0 0.00 0.10 0.00 86 1007.8
20210418080040 41 0 0.0 0.0 0.00 0.11 0.00 86 1007.9
20210418075314 41 0 0.0 0.0 0.00 0.11 0.00 87 1007.8
20210418074537 41 0 0.0 0.0 0.00 0.11 0.00 87 1007.8
20210418074023 41 0 0.0 0.0 0.00 0.11 0.00 87 1007.7
20210418073527 41 0 0.0 0.0 0.00 0.11 0.00 87 1007.7
20210418073238 41 0 0.0 2.0 0.00 0.11 0.00 87 1007.7
20210418072726 41 254 0.0 2.0 0.00 0.11 0.00 88 1007.7
20210418072139 41 304 0.0 2.0 0.00 0.11 0.00 88 1007.7
20210418071621 40 0 0.0 0.0 0.00 0.11 0.00 88 1007.6
20210418071040 40 0 0.0 1.0 0.00 0.11 0.00 88 1007.7
20210418070523 40 0 0.0 1.0 0.00 0.11 0.00 89 1007.6
20210418070109 40 296 0.0 1.0 0.00 0.11 0.00 89 1007.7
20210418065757 40 0 0.0 1.0 0.00 0.11 0.00 89 1007.6
20210418065238 40 297 1.0 1.0 0.00 0.11 0.00 88 1007.6
20210418064528 40 0 0.0 0.0 0.00 0.11 0.00 88 1007.5
20210418064029 41 0 0.0 0.0 0.00 0.11 0.00 88 1007.5
20210418063520 41 0 0.0 0.0 0.00 0.11 0.00 88 1007.5
20210418063055 41 0 0.0 0.0 0.00 0.11 0.00 88 1007.6
20210418062746 41 0 0.0 0.0 0.00 0.11 0.00 88 1007.6
20210418062217 41 0 0.0 0.0 0.00 0.11 0.00 88 1007.6
20210418061531 41 0 0.0 0.0 0.00 0.11 0.00 88 1007.6
20210418061031 41 0 0.0 0.0 0.00 0.11 0.00 87 1007.6
20210418060537 41 0 0.0 0.0 0.00 0.11 0.00 87 1007.6
20210418060154 41 0 0.0 0.0 0.00 0.11 0.00 87 1007.8
20210418055916 41 0 0.0 0.0 0.00 0.12 0.00 87 1007.7
20210418055337 41 0 0.0 0.0 0.00 0.12 0.00 87 1007.7
20210418054547 41 0 0.0 0.0 0.00 0.12 0.00 87 1007.9
20210418054041 41 0 0.0 0.0 0.00 0.12 0.00 87 1007.9
20210418053532 41 0 0.0 0.0 0.00 0.12 0.00 87 1007.9
20210418053057 41 0 0.0 0.0 0.00 0.12 0.00 86 1007.9
20210418052901 41 0 0.0 0.0 0.00 0.12 0.00 86 1008.1
20210418052317 41 0 0.0 1.0 0.00 0.12 0.00 86 1008.1
20210418051629 41 0 0.0 1.0 0.00 0.12 0.00 86 1008.1
20210418051023 41 0 0.0 1.0 0.00 0.12 0.00 86 1008.2
20210418050539 41 0 0.0 0.0 0.00 0.12 0.00 86 1008.2
20210418050118 41 319 0.0 0.0 0.00 0.12 0.00 86 1008.2
20210418045829 41 0 0.0 0.0 0.00 0.12 0.00 86 1008.2
20210418045200 41 0 0.0 0.0 0.00 0.12 0.00 85 1008.2
20210418044542 41 0 0.0 0.0 0.00 0.12 0.00 85 1008.3
20210418044022 41 0 0.0 0.0 0.00 0.12 0.00 85 1008.3
20210418043546 42 0 0.0 0.0 0.00 0.12 0.00 84 1008.3
20210418043053 42 319 0.0 0.0 0.00 0.12 0.00 84 1008.3
20210418042843 42 0 0.0 0.0 0.00 0.12 0.00 84 1008.2
20210418042421 42 0 0.0 0.0 0.00 0.12 0.00 84 1008.2
20210418041531 42 0 0.0 0.0 0.00 0.12 0.00 83 1008.2
20210418041141 42 0 0.0 0.0 0.00 0.12 0.00 83 1008.2
20210418040525 42 0 0.0 0.0 0.00 0.12 0.00 83 1008.2
20210418040043 42 0 0.0 1.0 0.00 0.12 0.00 83 1008.2
20210418035821 42 0 0.0 2.0 0.00 0.12 0.12 83 1008.3
20210418035255 42 319 0.0 2.0 0.00 0.12 0.12 82 1008.3
20210418034550 42 0 0.0 0.0 0.00 0.12 0.12 82 1008.3
20210418034043 42 0 0.0 0.0 0.00 0.12 0.12 82 1008.3
20210418033527 42 319 0.0 2.0 0.00 0.12 0.12 82 1008.3
20210418033110 42 319 0.0 2.0 0.00 0.12 0.12 83 1008.3
20210418032920 42 324 0.0 2.0 0.00 0.12 0.12 84 1008.5
20210418032442 42 0 0.0 0.0 0.00 0.12 0.12 84 1008.5
20210418031541 42 0 0.0 0.0 0.00 0.12 0.12 84 1008.5
20210418031027 42 0 0.0 0.0 0.00 0.12 0.12 84 1008.4
20210418030525 42 0 0.0 0.0 0.00 0.12 0.12 84 1008.5
20210418030245 42 0 0.0 0.0 0.00 0.12 0.12 84 1008.3
20210418025940 42 0 0.0 0.0 0.00 0.12 0.12 84 1008.3
20210418025420 42 0 0.0 0.0 0.00 0.12 0.12 84 1008.3
20210418024616 42 0 0.0 0.0 0.00 0.12 0.12 84 1008.4
20210418024048 42 0 0.0 0.0 0.00 0.12 0.12 84 1008.3
20210418023553 42 0 0.0 0.0 0.00 0.12 0.12 83 1008.3
20210418023055 42 0 0.0 0.0 0.00 0.12 0.12 83 1008.2
20210418022756 42 0 0.0 0.0 0.00 0.12 0.12 84 1008.3
20210418022102 42 0 0.0 0.0 0.00 0.12 0.12 85 1008.4
20210418021538 41 0 0.0 0.0 0.00 0.12 0.12 85 1008.5
20210418021025 42 0 0.0 0.0 0.00 0.12 0.12 85 1008.6
20210418020527 42 0 0.0 0.0 0.00 0.12 0.12 85 1008.7
20210418020107 42 0 0.0 0.0 0.00 0.12 0.12 85 1008.6
20210418015855 42 0 0.0 0.0 0.00 0.14 0.12 85 1008.7
20210418015433 42 0 0.0 0.0 0.00 0.14 0.12 84 1008.8
20210418014540 42 0 0.0 0.0 0.00 0.14 0.12 84 1008.9
20210418014024 42 0 0.0 0.0 0.00 0.14 0.12 84 1008.9
20210418013536 41 0 0.0 0.0 0.00 0.14 0.12 84 1008.8
20210418013305 41 0 0.0 0.0 0.00 0.14 0.12 84 1008.9
20210418013031 41 0 0.0 0.0 0.00 0.14 0.12 84 1008.9
20210418012309 42 0 0.0 0.0 0.00 0.14 0.12 84 1008.8
20210418011525 42 0 0.0 0.0 0.00 0.14 0.12 84 1008.7
20210418011033 42 0 0.0 0.0 0.00 0.14 0.12 83 1008.7
20210418010550 42 0 0.0 0.0 0.00 0.14 0.12 83 1008.6
20210418010042 42 0 0.0 0.0 0.00 0.14 0.12 82 1008.6
20210418005821 42 0 0.0 0.0 0.00 0.16 0.12 81 1008.5
20210418005226 42 0 0.0 0.0 0.00 0.16 0.12 81 1008.5
20210418004551 42 0 0.0 0.0 0.00 0.16 0.12 80 1008.5
20210418004039 43 0 0.0 0.0 0.00 0.16 0.12 80 1008.4
20210418003524 43 0 0.0 0.0 0.00 0.16 0.12 80 1008.4
20210418003032 43 0 0.0 0.0 0.00 0.16 0.12 78 1008.3
20210418002823 43 0 0.0 0.0 0.00 0.16 0.12 78 1008.3
20210418002227 43 0 0.0 0.0 0.00 0.16 0.12 78 1008.2
20210418001532 43 0 0.0 0.0 0.00 0.16 0.12 78 1008.2
20210418001030 43 0 0.0 0.0 0.00 0.16 0.12 77 1008.3
20210418000539 44 0 0.0 0.0 0.00 0.16 0.12 77 1008.3
20210418000046 44 0 0.0 1.0 0.00 0.16 0.12 76 1008.1
20210417235833 44 0 0.0 1.0 0.00 0.16 0.12 75 1008.1
20210417235350 44 0 0.0 1.0 0.00 0.16 0.12 75 1008.0
20210417234543 44 301 0.0 1.0 0.00 0.16 0.12 75 1007.9
20210417234034 44 0 0.0 1.0 0.00 0.16 0.12 75 1007.8
20210417233530 44 301 0.0 2.0 0.00 0.16 0.12 74 1007.9
20210417233145 45 0 0.0 2.0 0.00 0.16 0.12 74 1007.9
20210417232822 45 318 1.0 2.0 0.00 0.16 0.12 74 1007.9
20210417232159 45 0 0.0 2.0 0.00 0.16 0.12 73 1007.9
20210417231546 45 0 1.0 2.0 0.00 0.16 0.12 73 1007.8
20210417231031 45 297 0.0 2.0 0.00 0.16 0.12 73 1007.7
20210417230520 45 350 1.0 4.0 0.00 0.16 0.12 72 1007.8
20210417230124 45 295 1.0 4.0 0.00 0.16 0.12 72 1007.8
20210417225849 45 304 1.0 3.0 0.00 0.16 0.12 73 1007.9
20210417225225 45 311 1.0 4.0 0.00 0.16 0.12 73 1007.8
20210417224547 46 315 1.0 4.0 0.00 0.16 0.12 72 1007.7
20210417224048 46 319 1.0 4.0 0.00 0.16 0.12 72 1007.7
20210417223533 46 330 2.0 5.0 0.00 0.16 0.12 71 1007.6
20210417223111 46 318 2.0 5.0 0.00 0.16 0.12 69 1007.5
20210417222920 46 301 4.0 5.0 0.00 0.16 0.12 68 1007.5
20210417222458 47 306 1.0 3.0 0.00 0.16 0.12 66 1007.5
20210417221536 47 0 0.0 1.0 0.00 0.16 0.12 66 1007.4
20210417221024 47 0 0.0 0.0 0.00 0.16 0.12 66 1007.4
20210417220519 47 0 0.0 1.0 0.00 0.16 0.12 66 1007.5
20210417220034 47 0 0.0 1.0 0.00 0.16 0.12 66 1007.4
20210417215715 47 294 0.0 1.0 0.00 0.16 0.12 66 1007.3
20210417215123 47 309 0.0 2.0 0.00 0.16 0.12 66 1007.3
20210417214533 47 307 1.0 3.0 0.00 0.16 0.12 66 1007.3
20210417214025 47 18 1.0 3.0 0.00 0.16 0.12 67 1007.2
20210417213522 47 337 1.0 3.0 0.00 0.16 0.12 67 1007.2
20210417213036 47 352 2.0 3.0 0.00 0.16 0.12 67 1007.1
20210417212740 47 307 2.0 2.0 0.00 0.16 0.12 68 1007.1
20210417212118 46 247 0.0 2.0 0.00 0.16 0.12 71 1007.0
20210417211535 46 323 0.0 4.0 0.00 0.16 0.12 70 1007.1
20210417211040 46 323 2.0 4.0 0.00 0.16 0.12 69 1007.0
20210417210519 45 331 1.0 3.0 0.00 0.16 0.12 70 1007.0
20210417210103 46 307 1.0 3.0 0.00 0.16 0.12 71 1007.0
20210417205848 45 335 1.0 2.0 0.00 0.16 0.12 71 1007.0
20210417205332 45 0 0.0 2.0 0.00 0.16 0.12 71 1006.9
20210417204527 45 0 0.0 3.0 0.00 0.16 0.12 71 1006.8
20210417204105 45 311 1.0 3.0 0.00 0.16 0.12 70 1006.7
20210417203540 45 314 2.0 3.0 0.00 0.16 0.12 71 1006.7
20210417203111 45 314 1.0 2.0 0.00 0.16 0.12 72 1006.7
20210417202818 45 321 1.0 2.0 0.00 0.16 0.12 71 1006.6
20210417202203 45 315 0.0 5.0 0.00 0.16 0.12 72 1006.5
20210417201551 45 311 2.0 5.0 0.00 0.16 0.12 70 1006.5
20210417201025 45 295 2.0 4.0 0.00 0.16 0.12 71 1006.5
20210417200521 45 325 1.0 6.0 0.00 0.16 0.12 71 1006.6
20210417200117 45 329 1.0 6.0 0.00 0.16 0.12 71 1006.5
20210417195743 45 330 2.0 5.0 0.00 0.16 0.12 72 1006.6
20210417195227 45 342 2.0 4.0 0.00 0.16 0.12 71 1006.6
20210417194544 45 302 1.0 4.0 0.00 0.16 0.12 73 1006.5
20210417194028 45 309 1.0 3.0 0.00 0.16 0.12 73 1006.5
20210417193526 45 309 1.0 3.0 0.00 0.16 0.12 74 1006.5
20210417193107 44 299 0.0 3.0 0.00 0.16 0.12 75 1006.5
20210417192820 44 306 1.0 3.0 0.00 0.16 0.12 74 1006.6
20210417192146 44 338 1.0 4.0 0.00 0.16 0.12 75 1006.7
20210417191555 44 313 1.0 4.0 0.00 0.16 0.12 74 1006.7
20210417191028 44 319 2.0 5.0 0.00 0.16 0.12 75 1006.6
20210417190530 44 290 2.0 5.0 0.00 0.16 0.12 73 1006.5
20210417190046 44 304 2.0 5.0 0.00 0.16 0.12 75 1006.6
20210417185756 44 347 2.0 3.0 0.00 0.17 0.12 75 1006.5
20210417185244 43 0 1.0 6.0 0.00 0.17 0.12 75 1006.5
20210417184613 43 319 2.0 6.0 0.00 0.17 0.12 75 1006.5
20210417184029 43 330 3.0 6.0 0.00 0.17 0.12 75 1006.4
20210417183519 43 307 3.0 5.0 0.00 0.17 0.12 76 1006.2
20210417183101 43 324 2.0 6.0 0.00 0.17 0.12 77 1006.4
20210417182858 43 337 1.0 6.0 0.00 0.17 0.12 78 1006.3
20210417182357 43 360 1.0 5.0 0.00 0.17 0.12 79 1006.4
20210417181536 43 354 2.0 6.0 0.00 0.17 0.12 80 1006.3
20210417181033 42 78 2.0 6.0 0.00 0.17 0.12 80 1006.4
20210417180541 42 3 2.0 5.0 0.00 0.17 0.12 81 1006.4
20210417180034 42 34 2.0 4.0 0.00 0.17 0.12 82 1006.4
20210417175758 41 320 1.0 6.0 0.00 0.19 0.12 82 1006.4
20210417175248 41 354 1.0 6.0 0.00 0.19 0.12 82 1006.4
20210417174524 41 343 2.0 4.0 0.00 0.19 0.12 82 1006.4
20210417174030 41 314 0.0 7.0 0.00 0.19 0.12 82 1006.4
20210417173523 41 352 3.0 7.0 0.00 0.19 0.12 81 1006.4
20210417173051 41 333 2.0 5.0 0.00 0.19 0.12 81 1006.4
20210417172852 41 295 2.0 5.0 0.00 0.19 0.12 82 1006.4
20210417172141 41 293 1.0 5.0 0.00 0.19 0.12 84 1006.4
20210417171602 41 340 1.0 4.0 0.00 0.19 0.12 86 1006.5
20210417171028 40 339 2.0 4.0 0.00 0.19 0.12 85 1006.3
20210417170518 40 31 1.0 3.0 0.01 0.19 0.12 87 1006.4
20210417170106 40 335 1.0 4.0 0.01 0.19 0.12 88 1006.6
20210417165809 39 333 2.0 6.0 0.01 0.25 0.12 87 1006.6
20210417165327 39 356 3.0 6.0 0.02 0.25 0.12 87 1006.7
20210417164616 39 309 1.0 5.0 0.02 0.25 0.12 89 1006.7
20210417164042 38 339 2.0 5.0 0.02 0.25 0.12 89 1006.7
20210417163538 38 304 2.0 4.0 0.03 0.25 0.12 89 1006.7
20210417163048 38 327 2.0 6.0 0.03 0.25 0.12 90 1006.7
20210417162800 37 304 3.0 6.0 0.03 0.25 0.12 90 1006.6
20210417162122 37 343 2.0 8.0 0.03 0.25 0.12 89 1006.6
20210417161532 37 344 4.0 8.0 0.04 0.25 0.12 89 1006.7
20210417161028 37 345 2.0 5.0 0.04 0.25 0.12 89 1006.6
20210417160527 37 293 2.0 4.0 0.03 0.24 0.11 89 1006.6
20210417160118 37 63 1.0 3.0 0.03 0.24 0.11 89 1006.6
20210417155818 37 358 2.0 3.0 0.03 0.30 0.11 89 1006.6
20210417155144 37 335 1.0 3.0 0.02 0.29 0.10 89 1006.6
20210417154557 37 345 2.0 4.0 0.03 0.29 0.10 88 1006.5
20210417154025 37 323 2.0 6.0 0.03 0.29 0.10 88 1006.4
20210417153526 37 307 3.0 6.0 0.02 0.28 0.09 88 1006.5
20210417153048 38 311 3.0 5.0 0.02 0.28 0.09 88 1006.2
20210417152736 38 349 1.0 4.0 0.02 0.28 0.09 88 1006.2
20210417152226 38 342 2.0 5.0 0.01 0.27 0.08 88 1006.3
20210417151534 38 327 1.0 8.0 0.01 0.27 0.08 88 1006.2
20210417151030 38 338 3.0 8.0 0.01 0.27 0.08 87 1006.2
20210417150533 38 340 2.0 5.0 0.01 0.27 0.08 87 1006.1
20210417150038 38 346 1.0 5.0 0.01 0.27 0.08 87 1006.2
20210417145827 38 72 1.0 5.0 0.01 0.28 0.08 87 1006.1
20210417145259 38 58 1.0 6.0 0.00 0.27 0.07 87 1006.1
20210417144549 38 349 2.0 6.0 0.00 0.27 0.07 86 1006.1
20210417144036 39 47 1.0 5.0 0.00 0.27 0.07 85 1005.9
20210417143535 39 117 2.0 5.0 0.00 0.27 0.07 86 1005.8
20210417143052 39 51 2.0 7.0 0.00 0.27 0.07 84 1005.8
20210417142846 39 328 3.0 9.0 0.00 0.27 0.07 82 1005.7
20210417142441 40 61 3.0 9.0 0.00 0.27 0.07 83 1005.6
20210417141611 40 53 3.0 9.0 0.00 0.27 0.07 82 1005.6
20210417141051 40 360 3.0 9.0 0.00 0.27 0.07 82 1005.5
20210417140534 40 339 1.0 9.0 0.00 0.27 0.07 84 1005.5
20210417140050 40 39 2.0 9.0 0.00 0.27 0.07 84 1005.5
20210417135906 39 98 3.0 7.0 0.00 0.35 0.07 84 1005.5
20210417135420 39 333 2.0 6.0 0.00 0.35 0.07 84 1005.4
20210417134618 39 354 3.0 6.0 0.00 0.35 0.07 85 1005.3
20210417134035 39 345 2.0 4.0 0.00 0.35 0.07 85 1005.3
20210417133520 39 300 2.0 6.0 0.00 0.35 0.07 86 1005.1
20210417133102 39 4 1.0 8.0 0.00 0.35 0.07 87 1005.1
20210417132801 39 50 2.0 8.0 0.00 0.35 0.07 85 1005.1
20210417132233 39 76 3.0 10.0 0.00 0.35 0.07 85 1005.2
20210417131534 39 349 2.0 10.0 0.00 0.35 0.07 86 1005.3
20210417131025 39 329 2.0 4.0 0.00 0.35 0.07 86 1005.2
20210417130522 39 325 2.0 5.0 0.00 0.35 0.07 86 1005.2
20210417130052 39 360 2.0 5.0 0.00 0.35 0.07 86 1005.2
20210417125844 39 342 2.0 7.0 0.00 0.44 0.07 87 1005.1
20210417125233 38 319 3.0 7.0 0.00 0.44 0.07 87 1005.1
20210417124534 38 350 3.0 5.0 0.00 0.44 0.07 87 1005.0
20210417124025 38 326 1.0 5.0 0.00 0.44 0.07 88 1005.0
20210417123519 38 341 2.0 5.0 0.00 0.44 0.07 88 1005.0
20210417123108 38 328 2.0 9.0 0.00 0.44 0.07 88 1005.0
20210417122513 38 348 1.0 5.0 0.00 0.44 0.07 89 1005.0
20210417121651 38 315 2.0 5.0 0.00 0.44 0.07 89 1004.9
20210417121028 38 280 1.0 3.0 0.00 0.44 0.07 90 1004.8
20210417120521 38 299 1.0 5.0 0.00 0.44 0.07 90 1004.8
20210417120037 38 351 2.0 7.0 0.00 0.51 0.07 90 1004.7
20210417115453 38 336 3.0 6.0 0.00 0.51 0.07 90 1004.8
20210417114544 38 343 3.0 6.0 0.00 0.51 0.07 90 1004.7
20210417114023 38 347 2.0 5.0 0.00 0.51 0.07 91 1004.6
20210417113519 38 335 1.0 5.0 0.00 0.51 0.07 91 1004.5
20210417113145 38 323 1.0 8.0 0.00 0.51 0.07 91 1004.5
20210417112915 37 277 3.0 8.0 0.00 0.51 0.07 92 1004.5
20210417112353 37 1 3.0 7.0 0.00 0.51 0.07 92 1004.4
20210417111524 37 310 1.0 5.0 0.01 0.51 0.07 92 1004.3
20210417111041 37 233 1.0 5.0 0.01 0.51 0.07 92 1004.4
20210417110521 37 358 2.0 6.0 0.01 0.51 0.07 92 1004.4
20210417110048 37 307 1.0 6.0 0.01 0.51 0.07 92 1004.3
20210417105906 37 335 2.0 5.0 0.01 0.61 0.07 93 1004.2
20210417105306 37 356 2.0 5.0 0.01 0.61 0.07 93 1004.0
20210417104525 37 323 1.0 4.0 0.01 0.61 0.07 93 1004.0
20210417104050 36 323 1.0 4.0 0.01 0.61 0.07 92 1003.8
20210417103528 37 18 1.0 5.0 0.01 0.61 0.07 93 1003.8
20210417103137 36 323 2.0 6.0 0.01 0.61 0.07 93 1003.7
20210417102828 36 351 2.0 6.0 0.01 0.61 0.07 93 1003.6
20210417102305 37 344 2.0 5.0 0.01 0.61 0.07 93 1003.8
20210417101544 37 354 2.0 8.0 0.00 0.60 0.06 93 1003.6
20210417101034 37 324 4.0 8.0 0.01 0.60 0.06 93 1003.5
20210417100541 37 339 2.0 9.0 0.01 0.60 0.06 93 1003.5
20210417100056 37 334 3.0 9.0 0.01 0.60 0.06 93 1003.4
20210417095722 37 351 3.0 5.0 0.02 0.68 0.06 93 1003.3
20210417095151 37 342 3.0 6.0 0.02 0.68 0.06 93 1003.4
20210417094650 37 345 3.0 6.0 0.02 0.68 0.06 93 1003.3
20210417094048 37 315 1.0 4.0 0.03 0.68 0.06 93 1003.2
20210417093521 37 32 2.0 3.0 0.03 0.68 0.06 93 1003.2
20210417093040 37 270 1.0 3.0 0.03 0.68 0.06 93 1003.1
20210417092745 36 311 1.0 6.0 0.03 0.68 0.06 93 1003.0
20210417092152 36 324 2.0 6.0 0.03 0.68 0.06 93 1003.0
20210417091540 37 52 2.0 6.0 0.04 0.68 0.06 93 1002.9
20210417091023 37 337 1.0 4.0 0.03 0.67 0.05 93 1002.9